[[{"header":{"parameterUnit":"m.s-1","parameterCategory":1,"la1":30.2991,"la2":30.254,"lo1":-89.0895,"lo2":-89.0444,"dy":0.0017,"dx":0.0017,"nx":28,"ny":28,"refTime":"2025-05-17T21:00:00:Z","depth":0,"parameterNumber":2,"parameterNumberName":"U-component_of_WINDS"},"data":[0,0,0,0,0,0,0,0,0,0,0,0,0,0,0,0,0,0,0,0,0,0,0,0,0,0,0,0,0,0,0,0,0,0,0,0,0,0,0,0,0,0,0,0,0,0,0,0,0,0,0,0,0,0,0,0,0,0,0.0308,0.0308,0,0.0375,0.0376,0.0377,0.0406,0.0406,0.0405,0.0405,0.0474,0.0476,0.0477,0,0,0,0,0,0,0,0,0,0,0,0,0,0.0201,0.0203,0.0308,0.0309,0.0309,0.0375,0.0376,0.0377,0.0406,0.0406,0.0405,0.0405,0.0473,0.0475,0.0478,0,0,0,0,0,0,0,0,0,0,0,0,0,0.0256,0.0204,0.0308,0.0332,0.0334,0.0375,0.0376,0.0377,0.0406,0.0406,0.0405,0.0405,0.0472,0.0475,0.0478,0.0499,0,0,0.0487,0.0488,0,0,0,0,0,0,0,0,0.0253,0.026,0.0327,0.033,0.0333,0.0382,0.0364,0.0418,0.0406,0.0379,0.0405,0.0405,0.0443,0.0449,0.0462,0.0503,0.0506,0.0487,0.0489,0.049,0.0491,0,0,0,0,0,0,0,0.0249,0.0257,0.0334,0.0328,0.0332,0.0338,0.0346,0.0374,0.0411,0.0381,0.0383,0.0391,0.0445,0.0459,0.0463,0.0507,0.0487,0.049,0.0491,0.0492,0.0568,0.0568,0,0,0,0,0,0,0.0242,0.0254,0.0332,0.0337,0.0292,0.034,0.0349,0.0366,0.0411,0.0417,0.0391,0.0392,0.0454,0.046,0.0466,0.0494,0.049,0.0493,0.0494,0.0567,0.0568,0.0568,0,0,0,0,0,0,0.0239,0.0248,0.033,0.0296,0.0307,0.0342,0.0362,0.0368,0.0382,0.0418,0.0425,0.0399,0.0454,0.0462,0.0491,0.0496,0.0494,0.0497,0.0567,0.0567,0.0568,0.0549,0,0,0,0,0,0,0.0236,0.0247,0.0256,0.0296,0.0308,0.0354,0.0362,0.0369,0.0387,0.0389,0.0427,0.0433,0.0454,0.0486,0.0494,0.05,0.0499,0.0567,0.0567,0.0568,0.055,0.0549,0.0548,0,0,0,0,0,0.0232,0.0248,0.0257,0.0266,0.0321,0.0354,0.0361,0.0385,0.0387,0.0396,0.0419,0.0432,0.0494,0.0489,0.0497,0.0505,0.0566,0.0567,0.0568,0.055,0.0549,0.0548,0,0,0,0,0,0,0.0209,0.0254,0.0264,0.0294,0.032,0.0359,0.0371,0.0384,0.041,0.0411,0.0439,0.0447,0.0474,0.0492,0.0486,0.0528,0.0531,0.0534,0.0515,0.0515,0.0514,0.0509,0.0501,0,0,0,0,0,0.0207,0.0231,0.0269,0.0292,0.0304,0.0335,0.0351,0.0367,0.0395,0.0406,0.0432,0.0458,0.0484,0.05,0.0526,0.0552,0.056,0.0561,0.0561,0.056,0.0562,0.0576,0.0577,0.057,0.057,0.057,0,0,0.0204,0.0231,0.0245,0.0288,0.031,0.0333,0.0345,0.0369,0.0387,0.041,0.0439,0.0458,0.049,0.0517,0.0531,0.0533,0.0566,0.0561,0.056,0.0562,0.0577,0.0578,0.0578,0.057,0.057,0.057,0,0,0.021,0.0233,0.0255,0.0276,0.031,0.033,0.0335,0.0372,0.0386,0.0415,0.0433,0.0454,0.0497,0.0519,0.0535,0.0548,0.0561,0.0555,0.0553,0.0567,0.0567,0.0568,0.0572,0.0574,0.0557,0.0557,0.0557,0,0.0202,0.0239,0.0264,0.0287,0.0305,0.0327,0.0348,0.0368,0.0408,0.0419,0.0422,0.0476,0.0499,0.0531,0.0534,0.0547,0.0553,0.0552,0.0565,0.0566,0.0567,0.0572,0.0573,0.0556,0.0556,0.0556,0.0556,0,0.0226,0.0251,0.0264,0.0302,0.0322,0.0344,0.0371,0.0388,0.0402,0.0421,0.045,0.0478,0.0509,0.0518,0.0532,0.0552,0.0553,0.056,0.0564,0.0567,0.0571,0.0573,0.0555,0.0555,0.0556,0.0556,0,0,0.0221,0.0272,0.0276,0.0293,0.0331,0.0351,0.0373,0.0404,0.0417,0.0443,0.0463,0.0498,0.0504,0.0523,0.054,0.0552,0.0559,0.0557,0.0558,0.0557,0.0583,0.0577,0.0579,0.0567,0.0568,0.0568,0.058,0,0.0232,0.0275,0.0297,0.0329,0.0353,0.0373,0.0392,0.0417,0.0436,0.0457,0.0478,0.0503,0.0509,0.0521,0.0533,0.0556,0.0565,0.0555,0.0585,0.0586,0.0577,0.0581,0.0576,0.0586,0.0582,0.0582,0.0582,0,0.0252,0.0278,0.0312,0.0347,0.0357,0.0375,0.0404,0.0424,0.0452,0.0465,0.0485,0.0501,0.0525,0.0527,0.0559,0.0552,0.0566,0.0578,0.0579,0.0583,0.0585,0.0586,0.059,0.0591,0.0586,0.0585,0.0585,0,0.0244,0.0288,0.0314,0.0328,0.0369,0.038,0.0398,0.0426,0.0442,0.0467,0.0478,0.0506,0.0521,0.0541,0.0564,0.0563,0.0594,0.0598,0.0605,0.0604,0.0611,0.0611,0.0618,0.0619,0.0619,0.0619,0.0619,0,0.0255,0.0275,0.0311,0.0327,0.035,0.0375,0.0397,0.0416,0.044,0.046,0.0479,0.0497,0.0525,0.0546,0.0564,0.0588,0.0595,0.0605,0.061,0.0604,0.0602,0.0613,0.0613,0.062,0.0619,0.0619,0.0619,0,0.0251,0.0276,0.0305,0.0341,0.0351,0.0366,0.0396,0.0412,0.0431,0.0456,0.0463,0.0493,0.0518,0.0543,0.0577,0.0589,0.0613,0.0619,0.0604,0.0606,0.0612,0.0611,0.0627,0.063,0.0629,0.0629,0.0629,0,0.0256,0.0272,0.0309,0.0324,0.0341,0.0364,0.0381,0.0406,0.0423,0.0455,0.0467,0.0494,0.0517,0.0557,0.0582,0.0608,0.0614,0.0618,0.0618,0.0612,0.0614,0.0613,0.0615,0.0618,0.0617,0.0617,0.0617,0,0.0263,0.0274,0.0298,0.0326,0.0345,0.0369,0.0392,0.0403,0.0432,0.0449,0.0476,0.0494,0.0529,0.0555,0.0584,0.0601,0.0614,0.0617,0.062,0.0614,0.0605,0.061,0.0602,0.0617,0.0617,0.0617,0.0617,0.0617,0.0264,0.0279,0.0307,0.0333,0.0353,0.0375,0.0391,0.0412,0.0435,0.0465,0.0478,0.0505,0.0531,0.0571,0.0588,0.0609,0.0612,0.0616,0.0617,0.0618,0.0617,0.0601,0.0614,0.0614,0.0614,0.0614,0.0614,0,0.0271,0.0291,0.0314,0.0346,0.0366,0.0376,0.0403,0.0419,0.0442,0.0466,0.0488,0.0518,0.0543,0.0569,0.0596,0.0607,0.0614,0.0613,0.0613,0.0617,0.0613,0.0607,0.0608,0.0608,0.0608,0.0608,0.0608,0.0608,0.0278,0.0304,0.0318,0.0354,0.0372,0.0399,0.0413,0.0433,0.0452,0.0484,0.0506,0.0522,0.0547,0.0575,0.0598,0.0605,0.0614,0.0612,0.0621,0.0617,0.0617,0.0617,0.0613,0.0614,0.0614,0.0623,0.0623,0.0623]},{"header":{"parameterUnit":"m.s-1","parameterCategory":1,"la1":30.2991,"la2":30.254,"lo1":-89.0895,"lo2":-89.0444,"dy":0.0017,"dx":0.0017,"nx":28,"ny":28,"refTime":"2025-05-17T21:00:00:Z","depth":0,"parameterNumber":3,"parameterNumberName":"V-component_of_WINDS"},"data":[0,0,0,0,0,0,0,0,0,0,0,0,0,0,0,0,0,0,0,0,0,0,0,0,0,0,0,0,0,0,0,0,0,0,0,0,0,0,0,0,0,0,0,0,0,0,0,0,0,0,0,0,0,0,0,0,0,0,2.9972,2.9973,0,3.0098,3.0099,3.01,3.0143,3.0143,3.0142,3.0142,3.0266,3.0269,3.0273,0,0,0,0,0,0,0,0,0,0,0,0,0,2.9763,2.9767,2.9972,2.9973,2.9975,3.0097,3.0099,3.0101,3.0143,3.0143,3.0142,3.0141,3.0264,3.0269,3.0273,0,0,0,0,0,0,0,0,0,0,0,0,0,2.9868,2.9768,2.9971,3.0011,3.0016,3.0097,3.0099,3.0101,3.0143,3.0143,3.0142,3.0141,3.0263,3.0268,3.0274,3.0324,0,0,3.0291,3.0294,0,0,0,0,0,0,0,0,2.9862,2.9875,3.0003,3.0008,3.0014,3.0104,3.0071,3.0176,3.0144,3.0095,3.0142,3.0141,3.0212,3.0222,3.0247,3.033,3.0335,3.0292,3.0295,3.0298,3.0299,0,0,0,0,0,0,0,2.9854,2.987,3.0021,3.0005,3.0012,3.0021,3.0035,3.0091,3.0156,3.0099,3.0102,3.0117,3.0215,3.0241,3.025,3.0337,3.0292,3.0297,3.03,3.0302,3.0466,3.0467,0,0,0,0,0,0,2.9841,2.9864,3.0017,3.0025,2.9935,3.0025,3.0041,3.0076,3.0155,3.0167,3.0117,3.0118,3.0232,3.0244,3.0255,3.0319,3.0298,3.0303,3.0306,3.0465,3.0467,3.0468,0,0,0,0,0,0,2.9837,2.9854,3.0012,2.9945,2.9966,3.0029,3.0068,3.0079,3.0106,3.017,3.0181,3.0133,3.0232,3.0247,3.0307,3.0324,3.0305,3.0311,3.0464,3.0466,3.0467,3.0447,0,0,0,0,0,0,2.983,2.9853,2.9873,2.9946,2.997,3.0064,3.0069,3.0082,3.0116,3.0118,3.0187,3.0198,3.0233,3.0298,3.0312,3.0331,3.0315,3.0463,3.0465,3.0467,3.0447,3.0448,3.0449,0,0,0,0,0,2.9823,2.9862,2.9874,2.9893,2.9997,3.0065,3.0078,3.0119,3.0117,3.0138,3.0179,3.0196,3.0319,3.0304,3.032,3.0341,3.0462,3.0464,3.0466,3.0446,3.0448,3.0449,0,0,0,0,0,0,2.9788,2.9872,2.9887,2.9951,3.0,3.0072,3.0099,3.0119,3.0169,3.0169,3.0215,3.0231,3.0287,3.032,3.0301,3.0393,3.0391,3.0397,3.0371,3.0372,3.0374,3.0365,3.032,0,0,0,0,0,2.9788,2.9837,2.9907,2.9957,2.9981,3.0036,3.0066,3.0093,3.0146,3.0167,3.0212,3.0261,3.0312,3.0343,3.0393,3.0451,3.0467,3.0473,3.0474,3.0475,3.048,3.0513,3.0517,3.0475,3.0475,3.0475,0,0,2.9788,2.984,2.9868,2.9951,2.9993,3.0042,3.0053,3.0104,3.014,3.0174,3.0235,3.0269,3.0327,3.0386,3.0415,3.0415,3.0495,3.0478,3.0478,3.0482,3.0516,3.052,3.0523,3.0476,3.0476,3.0476,0,0,2.9814,2.9858,2.9905,2.9947,3.001,3.0046,3.0057,3.0126,3.0151,3.0212,3.0239,3.0281,3.0366,3.0407,3.0438,3.0478,3.0496,3.0493,3.0499,3.0531,3.0534,3.0538,3.0553,3.0557,3.0497,3.0497,3.0497,0,2.9806,2.9883,2.9926,2.9976,3.0011,3.0045,3.0092,3.013,3.0205,3.0228,3.0228,3.0336,3.0377,3.0447,3.0457,3.0481,3.0494,3.0486,3.0531,3.0534,3.0538,3.0553,3.0558,3.0496,3.0496,3.0496,3.0496,0,2.987,2.9922,2.9951,3.0026,3.0064,3.0112,3.0161,3.0194,3.0217,3.0253,3.0314,3.0365,3.0426,3.0443,3.0466,3.0516,3.0515,3.0522,3.0521,3.0541,3.0555,3.0561,3.0495,3.0495,3.0495,3.0496,0,0,2.9879,2.9976,2.9987,3.0021,3.0093,3.0133,3.0182,3.0243,3.0271,3.0321,3.0363,3.0434,3.0441,3.0477,3.0503,3.0531,3.0561,3.0535,3.0537,3.0539,3.062,3.0615,3.0621,3.0572,3.0573,3.0574,3.0615,0,2.9915,3.0006,3.0046,3.0118,3.0167,3.0199,3.0242,3.029,3.0324,3.0368,3.0405,3.0455,3.046,3.0482,3.0511,3.0551,3.0578,3.0548,3.0611,3.0613,3.0598,3.0629,3.0625,3.0661,3.0621,3.0622,3.0623,0,2.997,3.0023,3.01,3.0167,3.0189,3.0226,3.0285,3.0328,3.0382,3.0405,3.0445,3.047,3.0521,3.0516,3.0586,3.0566,3.0593,3.0616,3.0619,3.0627,3.062,3.064,3.0674,3.0679,3.0632,3.0632,3.0631,0,2.997,3.006,3.0119,3.0146,3.0225,3.0251,3.0285,3.0338,3.0372,3.0423,3.0445,3.05,3.053,3.0572,3.0611,3.0603,3.0678,3.0675,3.0698,3.0697,3.0714,3.0712,3.0754,3.0728,3.0728,3.0728,3.0728,0,3.0008,3.0054,3.012,3.0156,3.0209,3.0253,3.0303,3.0339,3.0386,3.0429,3.0458,3.0497,3.0546,3.059,3.0621,3.0675,3.0688,3.0707,3.0715,3.0706,3.0703,3.0726,3.0725,3.073,3.0729,3.0729,3.0729,0,3.0018,3.0064,3.013,3.0199,3.0217,3.0253,3.0312,3.0347,3.0382,3.0435,3.045,3.0505,3.0559,3.0602,3.0671,3.0692,3.0749,3.0757,3.0732,3.0736,3.0757,3.0754,3.0815,3.0825,3.0791,3.0792,3.0792,0,3.004,3.0076,3.015,3.0181,3.0215,3.0265,3.03,3.0344,3.0379,3.0444,3.0471,3.0528,3.0576,3.066,3.0705,3.0758,3.0768,3.0786,3.0777,3.0766,3.077,3.0768,3.0772,3.0787,3.0787,3.0787,3.0788,0,3.0073,3.0094,3.0145,3.0204,3.0245,3.0293,3.0341,3.0364,3.0416,3.0454,3.0511,3.0548,3.062,3.0675,3.0733,3.0766,3.0786,3.079,3.0798,3.079,3.0774,3.0784,3.0736,3.0789,3.0789,3.0789,3.0788,3.0788,3.0091,3.0126,3.0183,3.0238,3.0279,3.0324,3.0361,3.0401,3.0449,3.0513,3.0534,3.0593,3.0645,3.0725,3.0759,3.0804,3.0805,3.0817,3.082,3.0823,3.0822,3.0766,3.0814,3.0814,3.0814,3.0814,3.0814,0,3.0128,3.0167,3.0217,3.0284,3.0327,3.0342,3.0396,3.0431,3.0482,3.053,3.0577,3.0642,3.0695,3.0744,3.08,3.0827,3.0837,3.084,3.0839,3.0847,3.0817,3.0805,3.0831,3.0831,3.0831,3.0831,3.0831,3.0831,3.0153,3.0212,3.0239,3.0319,3.0357,3.0415,3.0445,3.0485,3.0524,3.0596,3.0641,3.0673,3.0721,3.0781,3.083,3.0843,3.0863,3.0864,3.0879,3.0851,3.0849,3.0847,3.0836,3.0867,3.0867,3.0905,3.0905,3.0906]}]]